Вернуться в каталог

WENCHANG-1 02

АктивенНаукаSSO
NORAD 51828·PAYLOAD·🇨🇳 China
Это название спутника еще не подтверждено официальными источниками.

Запущен Feb 27, 2022 с Wenchang Space Launch Site

Loading…

Ближайшие Пролёты (ближайшие 24 часа)

TLE

СвежийSource: Space-Track

Эпоха: Sep 14, 2026, 14:39 UTC

1 51828U 22019E   26257.61106823  .00025124  00000-0  27261-3 0  9992
2 51828  97.3787 358.4644 0005954 129.2978 230.8809 15.63485987253941

Отслеживайте WENCHANG-1 02 в реальном времени с AllMySat

Download on the App Store